When you browse on this site, cookies collect data to enhance your experience and personalize the content and advertising you see.
Visit our Privacy Policy to learn more. By continuing to use the site, you agree to this use of cookies and data.
  • en Suisse
  • Liste des pays
  • À 7 jours
  • Température de l'eau
  • Carte météo
  • Widgets météo
  • user-avatar
    Se connecter

    Météo par heure à Tucupita

    Ce jour, 23 Octobre, Mercredi

    Heure Température Précipitation Vent Pression Humidité
    00:00 +25°C° 0 mm 1 m/s 756 mmHg 94%
    01:00 +22°C° 0 mm 0 m/s 756 mmHg 95%
    02:00 +22°C° 0 mm 0 m/s 756 mmHg 96%
    03:00 +22°C° 0 mm 0 m/s 756 mmHg 97%
    04:00 +22°C° 0 mm 0 m/s 756 mmHg 98%
    05:00 +24°C° 0 mm 1 m/s 756 mmHg 99%
    06:00 +26°C° 0 mm 1 m/s 756 mmHg 93%
    07:00 +27°C° 0 mm 1 m/s 757 mmHg 87%
    08:00 +29°C° 0 mm 1 m/s 757 mmHg 81%
    09:00 +30°C° 0 mm 1 m/s 757 mmHg 73%
    10:00 +32°C° 0 mm 2 m/s 757 mmHg 65%
    11:00 +35°C° 0 mm 2 m/s 757 mmHg 58%
    12:00 +35°C° 0.7 mm 2 m/s 756 mmHg 59%
    13:00 +35°C° 0.7 mm 2 m/s 756 mmHg 60%
    14:00 +35°C° 0.7 mm 2 m/s 755 mmHg 61%
    15:00 +32°C° 0.4 mm 2 m/s 755 mmHg 68%
    16:00 +31°C° 0.4 mm 2 m/s 755 mmHg 74%
    17:00 +29°C° 0.4 mm 2 m/s 755 mmHg 81%
    18:00 +28°C° 0.1 mm 2 m/s 755 mmHg 85%
    19:00 +28°C° 0.1 mm 1 m/s 756 mmHg 89%
    20:00 +27°C° 0.1 mm 1 m/s 756 mmHg 92%
    21:00 +26°C° 0 mm 1 m/s 757 mmHg 94%
    22:00 +26°C° 0 mm 1 m/s 757 mmHg 95%
    23:00 +26°C° 0 mm 1 m/s 757 mmHg 96%

    Demain, 24 Octobre, Jeudi

    Heure Température Précipitation Vent Pression Humidité
    00:00 +25°C° 0.1 mm 1 m/s 757 mmHg 97%
    01:00 +25°C° 0.1 mm 1 m/s 756 mmHg 97%
    02:00 +25°C° 0.1 mm 1 m/s 756 mmHg 98%
    03:00 +25°C° 0.4 mm 1 m/s 756 mmHg 98%
    04:00 +25°C° 0.4 mm 1 m/s 756 mmHg 98%
    05:00 +23°C° 0.4 mm 0 m/s 755 mmHg 99%
    06:00 +26°C° 0.2 mm 1 m/s 756 mmHg 97%
    07:00 +27°C° 0.2 mm 1 m/s 756 mmHg 95%
    08:00 +28°C° 0.2 mm 1 m/s 757 mmHg 93%
    09:00 +30°C° 0.3 mm 1 m/s 757 mmHg 83%
    10:00 +31°C° 0.3 mm 2 m/s 757 mmHg 74%
    11:00 +34°C° 0.3 mm 2 m/s 757 mmHg 64%
    12:00 +34°C° 0.6 mm 2 m/s 756 mmHg 66%
    13:00 +34°C° 0.6 mm 2 m/s 756 mmHg 68%
    14:00 +34°C° 0.6 mm 2 m/s 755 mmHg 70%
    15:00 +32°C° 0.5 mm 2 m/s 755 mmHg 75%
    16:00 +31°C° 0.5 mm 2 m/s 755 mmHg 80%
    17:00 +30°C° 0.5 mm 2 m/s 755 mmHg 84%
    18:00 +29°C° 0 mm 1 m/s 755 mmHg 88%
    19:00 +28°C° 0 mm 1 m/s 756 mmHg 91%
    20:00 +27°C° 0 mm 1 m/s 756 mmHg 95%
    21:00 +26°C° 0 mm 1 m/s 756 mmHg 96%
    22:00 +26°C° 0 mm 1 m/s 757 mmHg 97%
    23:00 +26°C° 0 mm 1 m/s 757 mmHg 98%

    Après-demain, 25 Octobre, Vendredi

    Heure Température Précipitation Vent Pression Humidité
    00:00 +26°C° 0 mm 1 m/s 756 mmHg 98%
    01:00 +25°C° 0 mm 1 m/s 756 mmHg 98%
    02:00 +25°C° 0 mm 1 m/s 756 mmHg 99%
    03:00 +25°C° 0 mm 1 m/s 756 mmHg 99%
    04:00 +25°C° 0 mm 1 m/s 756 mmHg 99%
    05:00 +23°C° 0 mm 0 m/s 756 mmHg 99%
    06:00 +26°C° 0 mm 1 m/s 756 mmHg 95%
    07:00 +27°C° 0 mm 1 m/s 757 mmHg 91%
    08:00 +29°C° 0 mm 1 m/s 758 mmHg 87%
    09:00 +30°C° 0.3 mm 1 m/s 758 mmHg 81%
    10:00 +31°C° 0.3 mm 2 m/s 758 mmHg 76%
    11:00 +32°C° 0.3 mm 2 m/s 758 mmHg 70%
    12:00 +32°C° 1 mm 2 m/s 757 mmHg 71%
    13:00 +32°C° 1 mm 2 m/s 756 mmHg 73%
    14:00 +32°C° 1 mm 2 m/s 755 mmHg 74%
    15:00 +31°C° 0.2 mm 2 m/s 755 mmHg 77%
    16:00 +30°C° 0.2 mm 2 m/s 755 mmHg 79%
    17:00 +30°C° 0.2 mm 2 m/s 755 mmHg 82%
    18:00 +29°C° 0 mm 1 m/s 756 mmHg 87%
    19:00 +28°C° 0 mm 1 m/s 756 mmHg 92%
    20:00 +26°C° 0 mm 1 m/s 757 mmHg 97%
    21:00 +26°C° 0 mm 1 m/s 757 mmHg 97%
    22:00 +26°C° 0 mm 1 m/s 757 mmHg 98%
    23:00 +26°C° 0 mm 1 m/s 757 mmHg 99%

    26 Octobre, Samedi

    Heure Température Précipitation Vent Pression Humidité
    00:00 +25°C° 0 mm 1 m/s 757 mmHg 99%
    01:00 +25°C° 0 mm 1 m/s 756 mmHg 99%
    02:00 +25°C° 0 mm 1 m/s 756 mmHg 99%
    03:00 +23°C° 0 mm 0 m/s 756 mmHg 99%
    04:00 +23°C° 0 mm 0 m/s 756 mmHg 99%
    05:00 +23°C° 0 mm 0 m/s 756 mmHg 99%
    06:00 +26°C° 0.1 mm 1 m/s 757 mmHg 95%
    07:00 +27°C° 0.1 mm 1 m/s 758 mmHg 92%
    08:00 +28°C° 0.1 mm 1 m/s 758 mmHg 88%
    09:00 +30°C° 0.3 mm 1 m/s 758 mmHg 82%
    10:00 +31°C° 0.3 mm 2 m/s 758 mmHg 76%
    11:00 +32°C° 0.3 mm 2 m/s 758 mmHg 70%
    12:00 +32°C° 0.5 mm 2 m/s 757 mmHg 67%
    13:00 +34°C° 0.5 mm 2 m/s 756 mmHg 65%
    14:00 +34°C° 0.5 mm 2 m/s 755 mmHg 63%
    15:00 +32°C° 0.1 mm 2 m/s 756 mmHg 66%
    16:00 +32°C° 0.1 mm 2 m/s 756 mmHg 70%
    17:00 +31°C° 0.1 mm 2 m/s 756 mmHg 74%
    18:00 +30°C° 0 mm 1 m/s 756 mmHg 80%
    19:00 +28°C° 0 mm 1 m/s 756 mmHg 85%
    20:00 +27°C° 0 mm 1 m/s 757 mmHg 91%
    21:00 +26°C° 0 mm 1 m/s 757 mmHg 94%
    22:00 +26°C° 0 mm 1 m/s 757 mmHg 96%
    23:00 +26°C° 0 mm 1 m/s 757 mmHg 98%

    27 Octobre, Dimanche

    Heure Température Précipitation Vent Pression Humidité
    00:00 +25°C° 0 mm 1 m/s 757 mmHg 98%
    01:00 +25°C° 0 mm 1 m/s 757 mmHg 98%
    02:00 +25°C° 0 mm 1 m/s 756 mmHg 99%
    03:00 +25°C° 0 mm 1 m/s 756 mmHg 99%
    04:00 +25°C° 0 mm 1 m/s 756 mmHg 99%
    05:00 +25°C° 0 mm 1 m/s 756 mmHg 99%
    06:00 +26°C° 0 mm 1 m/s 757 mmHg 94%
    07:00 +28°C° 0 mm 1 m/s 757 mmHg 89%
    08:00 +29°C° 0 mm 2 m/s 758 mmHg 84%
    09:00 +30°C° 0.1 mm 2 m/s 758 mmHg 76%
    10:00 +32°C° 0.1 mm 2 m/s 758 mmHg 68%
    11:00 +34°C° 0.1 mm 2 m/s 758 mmHg 60%
    12:00 +34°C° 0.6 mm 2 m/s 757 mmHg 62%
    13:00 +34°C° 0.6 mm 2 m/s 756 mmHg 63%
    14:00 +34°C° 0.6 mm 2 m/s 755 mmHg 65%
    15:00 +32°C° 1.1 mm 2 m/s 755 mmHg 72%
    16:00 +30°C° 1.1 mm 2 m/s 755 mmHg 80%
    17:00 +28°C° 1.1 mm 2 m/s 755 mmHg 88%
    18:00 +28°C° 0 mm 2 m/s 756 mmHg 90%
    19:00 +27°C° 0 mm 1 m/s 756 mmHg 92%
    20:00 +26°C° 0 mm 1 m/s 757 mmHg 95%
    21:00 +26°C° 0 mm 1 m/s 757 mmHg 96%
    22:00 +26°C° 0 mm 1 m/s 757 mmHg 97%
    23:00 +25°C° 0 mm 1 m/s 757 mmHg 98%

    28 Octobre, Lundi

    Heure Température Précipitation Vent Pression Humidité
    00:00 +25°C° 0 mm 1 m/s 757 mmHg 98%
    01:00 +25°C° 0 mm 1 m/s 756 mmHg 98%
    02:00 +25°C° 0 mm 1 m/s 756 mmHg 98%
    03:00 +25°C° 0 mm 1 m/s 756 mmHg 98%
    04:00 +23°C° 0 mm 0 m/s 756 mmHg 98%
    05:00 +23°C° 0 mm 0 m/s 756 mmHg 98%
    06:00 +26°C° 0 mm 1 m/s 757 mmHg 94%
    07:00 +27°C° 0 mm 1 m/s 757 mmHg 90%
    08:00 +28°C° 0 mm 1 m/s 758 mmHg 86%
    09:00 +30°C° 0.1 mm 1 m/s 758 mmHg 77%
    10:00 +32°C° 0.1 mm 2 m/s 758 mmHg 69%
    11:00 +34°C° 0.1 mm 2 m/s 758 mmHg 61%
    12:00 +34°C° 1 mm 2 m/s 757 mmHg 63%
    13:00 +34°C° 1 mm 2 m/s 756 mmHg 66%
    14:00 +33°C° 1 mm 3 m/s 755 mmHg 68%
    15:00 +32°C° 0.4 mm 2 m/s 755 mmHg 73%
    16:00 +31°C° 0.4 mm 2 m/s 755 mmHg 77%
    17:00 +30°C° 0.4 mm 2 m/s 755 mmHg 81%
    18:00 +29°C° 0.1 mm 2 m/s 755 mmHg 85%
    19:00 +27°C° 0.1 mm 2 m/s 756 mmHg 90%
    20:00 +26°C° 0.1 mm 1 m/s 756 mmHg 95%
    21:00 +26°C° 0 mm 1 m/s 756 mmHg 96%
    22:00 +26°C° 0 mm 1 m/s 756 mmHg 97%
    23:00 +25°C° 0 mm 1 m/s 756 mmHg 98%

    29 Octobre, Mardi

    Heure Température Précipitation Vent Pression Humidité
    00:00 +25°C° 0 mm 1 m/s 756 mmHg 98%
    01:00 +25°C° 0 mm 1 m/s 756 mmHg 98%
    02:00 +25°C° 0 mm 1 m/s 755 mmHg 99%
    03:00 +25°C° 0 mm 1 m/s 755 mmHg 99%
    04:00 +23°C° 0 mm 0 m/s 755 mmHg 99%
    05:00 +23°C° 0 mm 0 m/s 756 mmHg 99%
    06:00 +24°C° 0 mm 0 m/s 756 mmHg 94%
    07:00 +27°C° 0 mm 1 m/s 757 mmHg 90%
    08:00 +29°C° 0 mm 1 m/s 757 mmHg 85%
    09:00 +30°C° 0.2 mm 1 m/s 757 mmHg 77%
    10:00 +32°C° 0.2 mm 1 m/s 757 mmHg 69%
    11:00 +34°C° 0.2 mm 2 m/s 757 mmHg 62%
    12:00 +33°C° 0.8 mm 1 m/s 756 mmHg 64%
    13:00 +33°C° 0.8 mm 1 m/s 755 mmHg 67%
    14:00 +32°C° 0.8 mm 1 m/s 754 mmHg 69%
    15:00 +31°C° 0.3 mm 2 m/s 754 mmHg 74%
    16:00 +31°C° 0.3 mm 2 m/s 754 mmHg 78%
    17:00 +30°C° 0.3 mm 2 m/s 754 mmHg 82%
    18:00 +28°C° 0 mm 2 m/s 755 mmHg 86%
    19:00 +27°C° 0 mm 1 m/s 755 mmHg 91%
    20:00 +26°C° 0 mm 1 m/s 756 mmHg 95%
    Voir plus